Overview Statistics Trail Chart Weather Telemetry Raw packets
 

This is the latest recevied weather packets stored in our database for station/object SA7AHC. If no packets are shown the sender has not sent any weather packets the latest 10 day(s).

<< 34 35 36 37 38 39 40 >>
Time Temp. Humidity Pressure Rain* Wind** Luminosity Snow
1788110548 16.11° C 97% 1004.6 hPa 1.27 mm - 11 W/m² -
1788109944 16.11° C 97% 1004.6 hPa 1.02 mm - 9 W/m² -
1788109337 16.11° C 97% 1004.6 hPa 0.76 mm - 12 W/m² -
1788108736 16.11° C 97% 1004.4 hPa 0.51 mm - 16 W/m² -
1788108133 16.11° C 97% 1004.4 hPa 1.02 mm - 12 W/m² -
1788107531 16.11° C 97% 1004.5 hPa 1.02 mm - 9 W/m² -
1788106928 16.11° C 97% 1004.4 hPa 0.51 mm - 16 W/m² -
1788106325 16.11° C 97% 1004.4 hPa 0.51 mm - 30 W/m² -
1788105722 16.11° C 96% 1004.6 hPa 0.51 mm - 47 W/m² -
1788105122 16.11° C 96% 1004.8 hPa 0.51 mm - 47 W/m² -
1788104522 16.11° C 96% 1004.8 hPa 0.25 mm - 42 W/m² -
1788103923 16.11° C 96% 1004.8 hPa 0.25 mm - 81 W/m² -
1788103321 16.11° C 96% 1004.9 hPa 1.52 mm - 42 W/m² -
1788102721 16.67° C 96% 1004.9 hPa 2.03 mm - 30 W/m² -
1788102120 16.67° C 95% 1005 hPa 2.03 mm - 95 W/m² -
1788101522 16.67° C 95% 1005 hPa 2.03 mm - 54 W/m² -
1788100922 16.67° C 94% 1005 hPa 2.03 mm - 67 W/m² -
1788100321 16.67° C 93% 1005.3 hPa 2.03 mm - 49 W/m² -
1788099721 17.22° C 92% 1005.3 hPa 0.51 mm - 49 W/m² -
1788099122 17.22° C 91% 1005.4 hPa 0 mm - 98 W/m² -
1788098522 17.22° C 92% 1005.4 hPa 0.25 mm - 128 W/m² -
1788097922 17.78° C 93% 1005.4 hPa 0.51 mm - 100 W/m² -
1788097322 17.22° C 93% 1005.3 hPa 0.51 mm - 172 W/m² -
1788096721 17.22° C 94% 1005.3 hPa 0.51 mm - 200 W/m² -
1788096121 16.67° C 93% 1005.4 hPa 0.51 mm - 204 W/m² -

* Rain latest hour (hover to see other rain measurements)
** Current wind speed in m/s (hover to see current wind gust speed)